{"data":{"norad_id":56508,"intl_designator":"2023-065F","name":"STARLINK-5335","alt_names":[],"object_type":"PAYLOAD","status":"ACTIVE","operator":null,"country":"US","launch_date":"2023-05-14","launch_site_code":"AFETR","launch_vehicle":null,"mission":null,"orbit_class":"UNKNOWN","rcs_meters":null,"size_class":null,"mass_kg":null,"dimensions":null,"purposes":["comms"],"wikipedia_slug":null,"has_3d_model":false,"image_url":null,"decayed_at":null,"tle_current":{"epoch":"2026-09-20T00:20:17.623968Z","epoch_age_seconds":156875,"freshness":"FRESH","line1":"1 56508U 23065F   26263.01409287  .00000600  00000+0  31329-4 0  9997","line2":"2 56508  43.0028 194.6585 0001509 268.7177  91.3502 15.27580639186320","mean_motion":15.27580639,"eccentricity":0.0001509,"inclination_deg":43.0028,"raan_deg":194.6585,"arg_perigee_deg":268.7177,"mean_anomaly_deg":91.3502,"bstar":3.1329e-5,"rev_number":18632,"period_min":94.266709281067,"perigee_km":482.01182995128,"apogee_km":484.0825353376,"semimajor_km":6861.1841826444,"source":"CELESTRAK","updated_at":"2026-09-21T09:00:33.469912Z"}}}